Location: Unspecified
(0.0000°N, 0.0000°E)
Time: 22:55:59
(UTC+00:00)

Vanguard 1 - Pass Details

Date: 03 October 2020
Orbit: 649 x 3833 km, 34.3° (Epoch: 28 October)

Event Time Altitude Azimuth Distance (km) Brightness Sun altitude
Rises 17:03:15 0° 243° (WSW) 7,765 16.0 11.4°
Reaches altitude 10° 17:09:12 10° 247° (WSW) 6,455 16.0 9.9°
Maximum altitude 17:27:24 52° 318° (NW) 2,769 12.8 5.3°
Drops below altitude 10° 17:37:36 10° 33° (NNE) 3,768 12.7 2.8°
Sets 17:40:09 0° 39° (NE) 4,436 13.0 2.2°
